Location: Roanoke
(37.2710°N, 79.9420°W)
Time: 13:03:09
(UTC-05:00)

S-56A Canister/Altair - All Passes

Search period start: 19 November 2019 00:00
Search period end: 29 November 2019 00:00
Orbit: 634 x 2498 km, 38.9° (Epoch: 17 November)

Date Brightness Start Highest point End Pass type
(mag) Time Alt. Az. Time Alt. Az. Time Alt. Az.
19 Nov - 14:11:02 10° S 14:19:50 22° SE 14:26:52 10° E daylight
19 Nov - 16:13:37 10° SW 16:24:50 53° SSE 16:32:18 10° E daylight
19 Nov - 18:20:04 10° WSW 18:29:35 87° NNW 18:35:45 10° ENE visible
19 Nov - 20:26:52 10° W 20:34:01 84° N 20:39:02 10° E visible
19 Nov - 22:32:33 10° W 22:37:30 36° SSW 22:41:37 10° SE night (unlit)
20 Nov - 13:38:15 10° S 13:46:42 20° SE 13:53:41 10° E daylight
20 Nov - 15:40:05 10° SW 15:51:47 50° SSE 15:59:45 10° E daylight
20 Nov - 17:46:24 10° WSW 17:56:42 90° S 18:03:20 10° ENE visible
20 Nov - 19:53:30 10° W 20:01:20 81° N 20:06:37 10° E visible
20 Nov - 21:59:27 10° W 22:05:01 44° SSW 22:09:23 10° SE visible
21 Nov - 13:05:38 10° S 13:13:32 18° SE 13:20:18 10° ESE daylight
21 Nov - 15:06:36 10° SW 15:18:41 47° SSE 15:27:07 10° E daylight
21 Nov - 17:12:41 10° WSW 17:23:46 86° SSE 17:30:52 10° ENE daylight
21 Nov - 19:20:01 10° W 19:28:35 80° N 19:34:13 10° E visible
21 Nov - 21:26:18 10° WNW 21:32:30 53° SSW 21:37:07 10° SE visible
22 Nov - 12:33:17 10° SSE 12:40:22 16° SE 12:46:37 10° ESE daylight
22 Nov - 14:33:09 10° SSW 14:45:32 44° SSE 14:54:24 10° E daylight
22 Nov - 16:38:56 10° WSW 16:50:46 82° SSE 16:58:24 10° ENE daylight
22 Nov - 18:46:26 10° W 18:55:46 79° N 19:01:49 10° E visible
22 Nov - 20:53:03 10° WNW 20:59:57 62° SSW 21:04:50 10° SE visible
22 Nov - 23:00:23 10° WSW 23:02:36 13° SW 23:04:40 10° SSW night (unlit)
23 Nov - 12:01:22 10° SSE 12:07:10 14° SE 12:12:30 10° ESE daylight
23 Nov - 13:59:47 10° SSW 14:12:18 41° SSE 14:21:37 10° E daylight
23 Nov - 16:05:10 10° WSW 16:17:41 78° SSE 16:25:53 10° ENE daylight
23 Nov - 18:12:46 10° W 18:22:53 80° N 18:29:23 10° E visible
23 Nov - 20:19:42 10° WNW 20:27:19 70° SSW 20:32:31 10° ESE visible
23 Nov - 22:26:37 10° W 22:30:10 17° SW 22:33:14 10° S night (unlit)
24 Nov - 11:30:16 10° SSE 11:33:58 11° SE 11:37:31 10° ESE daylight
24 Nov - 13:26:29 10° SSW 13:39:03 38° SE 13:48:43 10° E daylight
24 Nov - 15:31:24 10° WSW 15:44:32 74° SSE 15:53:19 10° ENE daylight
24 Nov - 17:39:00 10° W 17:49:56 81° N 17:56:55 10° E visible
24 Nov - 19:46:17 10° WNW 19:54:38 78° SSW 20:00:12 10° ESE visible
24 Nov - 21:53:04 10° W 21:57:43 22° SW 22:01:30 10° S visible
25 Nov - 12:53:19 10° SSW 13:05:45 35° SE 13:15:43 10° E daylight
25 Nov - 14:57:40 10° WSW 15:11:19 71° SSE 15:20:41 10° ENE daylight
25 Nov - 17:05:10 10° W 17:16:55 82° N 17:24:26 10° E daylight
25 Nov - 19:12:44 10° WNW 19:21:54 84° SSW 19:27:50 10° ESE visible
25 Nov - 21:19:35 10° W 21:25:14 28° SW 21:29:35 10° SSE visible
26 Nov - 12:20:16 10° SSW 12:32:26 32° SE 12:42:35 10° E daylight
26 Nov - 14:23:59 10° SW 14:38:02 67° SSE 14:48:00 10° ENE daylight
26 Nov - 16:31:18 10° W 16:43:48 84° N 16:51:55 10° E daylight
26 Nov - 18:39:06 10° WNW 18:49:04 89° S 18:55:27 10° ESE visible
26 Nov - 20:46:05 10° W 20:52:44 35° SW 20:57:34 10° SSE visible
27 Nov - 11:47:21 10° S 11:59:06 29° SE 12:09:18 10° E daylight
27 Nov - 13:50:22 10° SW 14:04:41 63° SSE 14:15:14 10° ENE daylight
27 Nov - 15:57:24 10° W 16:10:37 86° N 16:19:21 10° E daylight
27 Nov - 18:05:24 10° W 18:16:09 88° NNE 18:23:01 10° ESE visible
27 Nov - 20:12:33 10° WNW 20:20:10 42° SW 20:25:28 10° SE visible
28 Nov - 11:14:38 10° S 11:25:47 26° SE 11:35:49 10° E daylight
28 Nov - 13:16:50 10° SW 13:31:17 59° SSE 13:42:23 10° ENE daylight
28 Nov - 15:23:31 10° WSW 15:37:21 89° N 15:46:44 10° E daylight
28 Nov - 17:31:36 10° W 17:43:09 85° N 17:50:33 10° E visible
28 Nov - 19:38:58 10° WNW 19:47:33 50° SSW 19:53:18 10° SE visible
